Back to catalog

THORAD AGENA D DEB

AliveVLEO
NORAD 4157·DEBRIS·🇺🇸 United States

Launched Sep 30, 1969 from Vandenberg Space Force Base

Loading…

Next Passes (next 24 hours)

TLE

FreshSource: Space-Track

Epoch: Sep 14, 2026, 00:42 UTC

1 04157U 69082Z   26257.02926012  .00015986  00000-0  77551-3 0  9993
2 04157  70.0022 268.2831 0020543 273.1925  86.6894 15.18381536  7866

Track THORAD AGENA D DEB in real time with AllMySat

Download on the App Store